CZ-2D DEB, 43403

Orbit data source: Space-Track

CZ-2D DEB, 43403 is space debris in SSO originally from a launch on Sat, 29 Sep 2012 UTC launched from the Jiuquan Satellite Launch Center, China (JSC). Debris objects in space refer to the collection of defunct objects orbiting the Earth. Examples of debris include non-operational satellites, rocket bodies, and fragments generated from explosions, collisions, or faulty payload assembly.

Loading next visibility...
CZ-2D DEB details
Identifier
43403, 2012-052C
Orbit
SSO
Last TLE update16 hours ago
Origin
Flag of CNCNSA (CN / PRC)
ManufacturerSAST
MissionSpacecraft
Bus & MotorUnknown
MassUnknown
Launch date (UTC)
2012-09-29 (12 years ago)
Launch vehicleUnknown
Launch site
Jiuquan Satellite Launch Center, China (JSC)
Object type
Payload
Rocket body
Debris
Shape & HBRUnknown
Radar Cross SectionSmall (<0.1 m²)

Expand to show TLE details & history

TLE from 16 hours ago
0 CZ-2D DEB
1 43403U 12052C   24361.07146416  .00009305  00000-0  24219-2 0  9996
2 43403  98.0097 114.0827 0201477 133.3239 228.4944 14.38327480578819
Epoch: 2024-12-26T01:42Z
Definitive object data (Epoch: 2024-12-26T01:42:54.503Z)
Latitude-0.00007°
Longitude-6.70051°
Altitude863.968 km
Speed7.37 km/s
True Right ascension07h 36m 19s
True Declination0° 00' 00"
Sunlit
Object was in full shadow at TLE epoch
Visualization TLE readout
Latitude-81.66175°
Longitude101.17612°
Altitude894.809 km
Speed7.35 km/s
Apparent Right ascension05h 56m 53s
Apparent Declination-69° 53' 01"
Sunlit
Object is in daylight
Visualization observer readout
Local Sidereal Time17:20:23
Azimuth186.197° SSW
Elevation-59.652°
Doppler factor1
Orbital elements
Apogee altitude904.969 km
Perigee altitude617.29 km
Semi-major axis7,139.267 km
Eccentricity0.0201477
Inclination98.0097°
RAAN114.0827°
Arg. of periapsis133.3239°
True anomaly226.79404°
Mean anomaly228.4944°
Eccentric anomaly227.64138°
Mean motion3.59801 °/min
BSTAR0.0024219
Orbital period100.06 mins
Loading maneuver chart data...
Loading historical data...
Loading historical data...
Loading historical data...
Loading historical data...
Loading historical data...
Loading historical data...
Loading historical data...
Other satellites on launch #52 in the year 2012 (2012-09-29 UTC)

CZ-2D DEB Visibility forecast

Observer location: undefined°, undefined

Span
Click to sort rows by Start time (UTC) header in descending order
Start Az.
Max El. time (UTC)
Max El. Az.
Max El.
End time (UTC)
End Az.
8 mins2024-12-26 20:38:57.775Z12.755° NNE2024-12-26 20:42:57.775Z21.072° NNE44.895°2024-12-26 20:46:57.775Z193.606° SSW
8 mins2024-12-27 07:53:57.775Z174.302° S2024-12-27 07:56:57.775Z216.961° SW43.542°2024-12-27 08:01:57.775Z343.728° N
|